OBJECT CA, 55081

Orbit data source: Space-Track

You're viewing an Uncataloged Satellite

Recently launched and/or uncataloged satellites may have evolving metadata. Metadata may include but not limited to: Owner, Maufacturer, Bus, Motor, and Mission.

OBJECT CA, 55081 is a satellite in SSO that was launched on Tue, 03 Jan 2023 UTC via an FALCON 9 launch vehicle from the Air Force Eastern Test Range (AFETR). Unknown objects in Earth's orbit typically refer to objects detected orbiting the Earth but have not yet been identified or cataloged. These objects could be anything from previously untracked satellites, spent rocket stages, debris from satellite collisions, or even natural meteoroids temporarily captured by Earth's gravity.

Loading next visibility...
Identifier
55081, 2023-001CA
Orbit
SSO
Country
Flag of TBDTBD
Related business
None
Manufacturer
Unknown
Mission
Non-operational Amateur Technology
Bus & Motor
Unknown
Mass
Unknown
Launch date (UTC)
2023-01-03 (3 years ago)
Launch vehicle
FALCON 9
Launch site
Air Force Eastern Test Range (AFETR)
Object type
Unknown
Shape & HBR
Box, 0.1 m
Radar Cross Section
0.025 m², Small (<0.1 m²)

Expand to show TLE details & history
Last TLE update: 15 hours ago

TLE from 15 hours ago
0 OBJECT CA
1 55081U 23001CA  25341.28463745  .00376252  56173-4  11215-2 0  9992
2 55081  97.3378  59.0654 0001231 357.2916   2.8351 15.92412290163898
Epoch: 2025-12-07T06:49Z
TLE epoch observation values (Epoch: 2025-12-07T06:49:52.675Z)
Latitude
-0.00007°
Longitude
-119.7043°
Altitude
297.904 km
Speed
7.729 km/s
True Right ascension
03h 56m 15s
True Declination
0° 00' 00"
Sunlit
Object was in full shadow at epoch
Visualization orbit readout
Latitude
Unknown
Longitude
Unknown
Altitude
Unknown
Speed
Unknown
Apparent Right ascension
Unknown
Apparent Declination
Unknown
Sunlit
N/A
Visualization observer readout
Local Sidereal Time
19:48:20
Azimuth
Unknown
Elevation
Unknown
Doppler factor
Unknown
Orbital elements
Apogee altitude
293.223 km
Perigee altitude
291.58 km
Semi-major axis
6,670.539 km
Eccentricity
0.00012
Inclination
97.3378°
RAAN
59.0654°
Arg. of periapsis
357.2916°
True anomaly
2.8358°
Mean anomaly
2.8351°
Eccentric anomaly
2.83545°
Mean motion
3.98384 °/min
Orbital period
90.37 mins
BSTAR
0.0011215
Loading maneuver chart data...
Computing Atmospheric mass density...
Loading historical data...
Loading historical data...
Loading historical data...
Loading historical data...
Loading historical data...
Loading historical data...
Loading historical data...

Documentation

Showing up to 5 results
|